Terminal Aerodrome Forecast
Issued by NWS Louisville, KY

Home | Current Version | Previous Version | Text Only | Print | Product List | Glossary On
Versions: 1 2 3 4 5 6 7 8 9 10 11 12 13 14
000
FTUS43 KLMK 172300
TAFSDF
TAF
KSDF 172320Z 1800/1906 02003KT P6SM BKN080
     FM181500 05006KT P6SM SCT040=

USA.gov is the U.S. government's official web portal to all federal, state and local government web resources and services.